Flag for U.S.A. Weather past 2 weeks in Helena, Montana, U.S.A.

Now
60 °F

Clear.


Feels Like: 60 °F
Forecast: 51 / 76 °F
Wind: 18 mph from West

Location: Helena Regional Airport

Current Time: Jul 25, 2014 at 12:50:38 AM

Latest Report: Jul 24, 2014 at 11:53 PM


Visibility: 10 mi

Pressure: 30.02 "Hg

Humidity: 39%

Dew point: 35 °F

Location of HelenaLocation

Historic Weather in Helena — Graph

°F

Helena temperature yesterday

Maximum temperature yesterday: 77 °F (at 11:53 AM)
Minimum temperature yesterday: 59 °F (at 2:53 AM)
Average temperature yesterday: 68 °F

Past Weeks' High & Low Weather Summary

 TemperatureHumidityPressure
High94 °F (Jul 10, 5:53 PM)93% (Jul 16, 12:53 AM)30.21 "Hg (Jul 16, 12:53 AM)
Low54 °F (Jul 16, 5:53 AM)12% (Jul 10, 6:53 PM)29.68 "Hg (Jul 17, 7:53 PM)
Average73 °F46%29.96 "Hg
* Reported Jul 9 10:53 PM — Jul 24 10:53 PM, Helena, Weather by CustomWeather, © 2014

Note: Actual official high and low records may vary slightly from our data, if they occured in-between our weather recording intervals... More about our weather records

Advertising

Helena weather history for previous 24 hours

 ConditionsComfort  
Time TempWeatherWind HumidityBarometerVisibility
10:53 PM
Jul 24
62 °FClear.10 mph37%30.02 "Hg10 mi
9:53 PM65 °FSunny.9 mph31%30.00 "Hg10 mi
8:53 PM67 °FSunny.9 mph26%29.98 "Hg10 mi
7:53 PM72 °FSunny.6 mph20%29.94 "Hg10 mi
6:53 PM74 °FSunny.13 mph18%29.92 "Hg10 mi
5:53 PM74 °FSunny.22 mph18%29.92 "Hg10 mi
4:53 PM75 °FSunny.21 mph18%29.96 "Hg10 mi
3:53 PM75 °FSunny.18 mph21%29.99 "Hg10 mi
2:53 PM75 °FSunny.23 mph23%29.99 "Hg10 mi
1:53 PM70 °FSunny.31 mph38%29.97 "Hg10 mi
12:53 PM70 °FSunny.29 mph39%29.94 "Hg10 mi
11:53 AM77 °FBroken clouds.12 mph35%29.87 "Hg10 mi
10:53 AM74 °FSunny.8 mph41%29.89 "Hg10 mi
9:53 AM72 °FSunny.14 mph44%29.90 "Hg10 mi
8:53 AM69 °FSunny.13 mph51%29.90 "Hg10 mi
7:53 AM67 °FSunny.10 mph57%29.92 "Hg10 mi
6:53 AM65 °FClear.14 mph61%29.87 "Hg10 mi
5:53 AM65 °FClear.13 mph59%29.88 "Hg10 mi
4:53 AM65 °FClear.9 mph56%29.86 "Hg10 mi
3:53 AM59 °FClear.9 mph69%29.84 "Hg10 mi
2:53 AM59 °FClear.3 mph78%29.83 "Hg10 mi
1:53 AM60 °FClear.No wind75%29.84 "Hg10 mi
12:53 AM61 °FClear.5 mph78%29.84 "Hg10 mi
Weather by CustomWeather, © 2014

See weather overviewHow to use our weather pages